time,Ferment Cool PID/i,Ferment Beer Sensor/value[degC],Ferment Heat PID/i,Ferment Heat PID/p,Ferment Cool PID/p,Ferment Cool PID/outputValue,Ferment Heat PID/outputValue
1582322400000000000,0.0032645751307250333,20.36359375,0.1605665160486938,2.752536026889054,-1.376268013444527,0,2.633552690132585
1582326000000000000,-0.000042430736400462966,20.261726190476192,1.1221834745861237,8.95610490425554,-4.477959203972387,0,10.546115349663628
1582329600000000000,-0.00024601689091435184,20.15266823743386,3.224716475552352,16.051882950717182,-8.025543616562294,0,19.583026975601438
1582333200000000000,-0.000305723160032242,20.07133763227513,6.276111249974164,20.239448345527446,-10.119724172763723,0,26.756390012710813
1582336800000000000,-0.00048828125,19.979762731481483,10.057378951784164,25.252165617766206,-12.626082808883103,0,35.422179405575704
1582340400000000000,-0.00048828125,19.90487599206349,14.56535799379702,28.874606985263725,-14.437303492631862,0,43.50642747505632
1582344000000000000,-0.0006605812355324074,19.830810598544975,19.665185269148893,32.11394407887938,-16.05697203943969,0,51.72363607093771
1582347600000000000,-0.0007273436854125331,19.767884424603178,24.361003342078476,34.528512944620125,-17.264256472310063,0,58.60690442604993
1582351200000000000,-0.000732421875,19.702527695105818,25.84006973347336,37.069144112723215,-18.534572056361608,0,59.99572339093243
1582354800000000000,-0.000732421875,19.64089203042328,25.848878180286874,39.085691583219656,-19.542845791609828,0,59.99614152857867
1582358400000000000,-0.0008020794580853174,19.57896536044974,25.849042263131924,41.329737969233825,-20.664837336758115,0,59.993590698242194
1582362000000000000,-0.00008422851562500001,19.527750082671957,25.93654558454241,6.736699018528852,-3.369358284763558,0,32.23425710688193
1582365600000000000,0.1060966154816863,19.558141534391535,25.933666333835706,-3.4908795303997935,1.7473923617569858,0,22.67414728705042
1582369200000000000,0.760322330212467,19.621944857804234,24.62549076140873,-12.146653271226024,6.072067502945188,0,12.757301955450147
1582372800000000000,2.0880145312112472,19.67563781415344,21.97008552995308,-19.764858992642196,9.882429496321098,0,2.985071738914207
1582376400000000000,3.9109405178493923,19.687175925925924,18.324226679726255,-23.275897313678076,11.637948656839038,0.5389148288302952,0
1582380000000000000,5.758293274571656,19.687254050925926,14.249161388255933,-25.6027421900835,12.80137109504175,14.774797939724392,0
1582383600000000000,7.936434287419396,19.68647156084656,9.796395045689176,-27.827729240296378,13.913864620148189,22.02922109775442,0
1582387200000000000,10.33006289366061,19.679096395502643,5.009132498281973,-29.34672990425554,14.67336495212777,25.470866983403607,0
1582390800000000000,12.733029090840981,19.639980158730157,0.6851637922014508,-27.958621877841846,13.979310938920923,27.73938820167824,0
1582394400000000000,15.055706940504606,19.622541298400673,-0.001220703125,-28.34746427843352,14.17373213921676,29.288592371057586,0
1582398000000000000,17.38102575877356,19.58382895171958,-0.0010993352012028772,-26.683401279348548,13.341700639674274,31.551315296314385,0
1582401600000000000,19.56950611255787,19.557321428571427,-0.001111876472594246,-26.383513919890873,13.191756959945437,32.64902491493831,0
1582405200000000000,21.643635018161998,19.505106646825396,-0.0009760538736979167,-23.337879645130624,11.668939822565312,34.023593344713646,0
1582408800000000000,23.469697359276825,19.4491228505291,-0.0007787327034763557,-20.09826498687583,10.049112713526165,34.09161060474537,0
1582412400000000000,24.95989463200645,19.379858630952384,-0.0005498686290922619,-15.582764802155673,7.791382401077836,33.35466260314618,0
1582416000000000000,26.03198173078911,19.303947585978833,-0.0003795224144345238,-10.19361675605572,5.09680837802786,32.03560576746704,0
1582419600000000000,26.678228247909946,19.228625165343914,-0.00014114783554480822,-4.9822983514694945,2.4911491757347473,30.19207243419829,0
1582423200000000000,26.920492316352,19.164568865740744,0.011613060683800433,-0.8687292028356479,0.4346720377604166,27.96201573124638,0
1582426800000000000,26.82504167990709,19.101535218253968,0.2670306557953042,3.2049040617766202,-1.6024520308883101,25.87002990076782,0
1582430400000000000,26.39896802306806,19.04055266203704,1.1191869891131365,6.983236807364005,-3.4916184036820024,23.66534110740379,0
1582434000000000000,25.653744608561198,18.979213789682543,2.609609823882895,10.879007975260416,-5.439072462616774,20.995992068336125,0
1582437600000000000,24.601683855006304,18.922944361772487,4.713737689628803,14.009876231037119,-7.0046058130011986,18.15367115162037,0
1582441200000000000,23.294360362865305,18.87325148809524,7.3284012131463925,16.850205355851106,-8.425102677925553,15.433921717083644,0
1582444800000000000,21.774705366508044,18.82263640873016,10.36775647844587,19.72231651992394,-9.861342495711392,12.397637929765006,7.813493663646557
1582448400000000000,20.390696448270607,18.89023024140212,13.13571477334966,11.045234801277282,-5.522617400638641,7.4248741949172254,24.36915894362031
1582452000000000000,20.043399612991898,19.0240269510582,13.83031672724971,-2.5756863387173445,1.2878431693586723,4.760417189825149,11.716466429372312
1582455600000000000,20.10751506502666,19.13852058531746,12.419653433340569,-13.797728038969495,6.898864019484748,3.511364001723193,0.8834961793283935
1582459200000000000,14.951121369215548,19.187123842592595,9.583188337699445,-18.740331579137735,9.370165789568867,4.8158331282681255,0
1582462800000000000,13.70395528319021,19.187384259259257,6.457896156916543,-18.741461375403023,9.370730687701512,21.89954698350694,0
1582466400000000000,15.220983607377955,19.164560185185184,3.419583879097429,-16.537007649739582,8.268503824869791,24.37799846507885,0
1582470000000000000,16.346430460611977,19.103788442460317,1.1687066553509424,-10.351737047629381,5.175868523814691,22.55098213155434,0
1582473600000000000,16.909077781394675,19.029471726190476,0.08551057684358467,-3.0398281844204695,1.5199140922102348,19.239490006058304,0
1582477200000000000,16.819102873625578,18.950713872354495,0.3139777160321594,4.8913514475343085,-2.4455853013134505,15.017002983295098,2.2098452581173524
1582480800000000000,16.252994232985078,18.92492228835979,1.4461950586712549,7.469285753038194,-3.734642876519097,8.852966027638267,9.404745753051111
1582484400000000000,15.67350676682891,18.93664351851852,2.605159442235553,6.418761399687914,-3.209380699843957,5.733456378916585,9.197303812339822
1582488000000000000,15.151321120489213,18.938126240079367,3.6495432907185226,6.166429953600364,-3.083214976800182,4.248500666542659,9.898055852657903
1582491600000000000,14.672382994959593,18.95118675595238,4.607423702825314,4.908386391937417,-2.452188966135499,3.376583371439939,10.00363837993965
1582495200000000000,14.376215778330648,18.978408151455028,5.199753351766597,2.261558734550678,-1.130779367275339,2.802249402242994,8.228222071733425
1582498800000000000,14.242676338316903,18.98613880621693,5.466838370832817,1.308525933159722,-0.6531121500298747,2.395261866655299,7.508253072102865
1582502400000000000,14.082016377121052,18.96858713624339,5.788150431315105,3.1404391495639055,-1.5702195747819527,2.0916086913416625,9.568687314633971
1582506000000000000,13.725753440251426,18.95317046957672,6.500674325448494,4.785410240213707,-2.3927051201068537,1.8563298624028606,11.82990458654979
1582509600000000000,13.294973331834905,18.94336268187831,7.362253640795511,5.696215755725032,-2.848107877862516,1.6686842870964573,13.409570467509921
1582513200000000000,12.824927678183904,18.948466435185185,8.3023206809715,5.2426807867786875,-2.6213403933893438,1.5155301952866649,13.953638895024698
1582516800000000000,12.462182667242786,18.96551421957672,9.027826063368055,3.3508400891823746,-1.6754200445911873,1.3880971611870656,12.97093200522125
1582520400000000000,12.231312901734043,18.97446056547619,9.489553602107618,2.571926056392609,-1.2859630281963046,1.280492818519552,12.571165228949653
1582524000000000000,12.020546401896803,18.97485656415344,9.911083101141388,2.4719146244109624,-1.2359573122054812,1.1883599449843956,13.100662859558428
1582527600000000000,11.798862277237829,18.970369957010583,10.354464968726747,3.015896267361111,-1.5085923936631946,1.1085790046812996,13.896493099152096
1582531200000000000,11.495391031901042,18.95476603835979,10.96139288846778,4.512503326254547,-2.2562516631272733,1.0388530896706558,15.949289348945413
1582534800000000000,11.069315894394324,18.94769345238095,11.813545223821407,5.223177793795469,-2.6115888968977345,0.977376654085028,17.476084042503718
1582538400000000000,10.660159083775111,18.95601314484127,12.631861260631098,4.40608255699198,-2.202881343781002,0.9227756447766824,17.51282236412089
1582542000000000000,10.345858244719329,18.97106026785714,13.260474971387751,3.172756134517609,-1.5863780672588046,0.8739520166790675,16.989024945617356
1582545600000000000,10.127374693855407,18.97815765542328,13.697439334607,2.2411749299871855,-1.1205874649935927,0.8300361140821345,16.467132800874253
1582549200000000000,9.95807516753989,18.982922453703704,14.036010189964658,1.8063754934482477,-0.9031877467241238,0.7903162557612021,16.417778168531957
1582552800000000000,9.83300220630787,18.988726025132276,14.28617134538277,1.1556846981956845,-0.5767188501105737,0.7542331287848256,15.903780039630872
1582556400000000000,9.749884362599206,18.99090732473545,14.452408805726066,0.8086118344907408,-0.4043059172453704,0.7212897810355696,15.648237814928487
1582560000000000000,9.694604052992725,18.99480076058201,14.562971632215712,0.5515416059544477,-0.2766043849723049,0.6911156403072297,15.497630121140254
1582563600000000000,9.640473227526144,18.99145213293651,14.67122649016204,0.8158317444816467,-0.4079158722408234,0.6633612932477678,15.87306057723111
1582567200000000000,9.555962135274575,18.989374586640213,14.840251282384157,1.2461578530609294,-0.623158853520792,0.6377498533864501,16.551629911553924
1582570800000000000,9.452053952494627,18.989540343915344,15.048069314300697,1.0809963973110948,-0.5404981986555474,0.614038160213087,16.576816782471994
1582574400000000000,9.379897079871446,18.993137400793653,15.192397543286523,0.6990731052620701,-0.34921329235904436,0.5920271002552496,16.23327674179481
1582578000000000000,9.338315885029141,18.99749917328042,15.275557225141576,0.32759619011450064,-0.16379809505725032,0.5715451098245287,15.881875965582632
1582581600000000000,9.321290736930079,18.999195601851852,15.309651077512711,0.08362769071387237,-0.041813845356936184,0.5524288456023686,15.560100128335298
1582585200000000000,9.306912152325665,18.99452670304233,15.338343447730656,0.5992417108444941,-0.3001859957578952,0.5345513948309358,16.195177370101685
1582588800000000000,9.214739363735946,18.983938078703705,15.52268960458261,1.4583590068514383,-0.7291795034257191,0.5177974882579985,17.410301634773376
1582592400000000000,9.023442875291936,18.974113343253972,15.90528985240472,2.6811423326926254,-1.3405711663463127,0.5020504421657986,19.078662312825525
1582596000000000000,8.840164250772466,18.979068287037038,16.27186390871724,2.175348029565559,-1.086512086252687,0.4872445501095403,18.882970487402858
1582599600000000000,8.598136086438698,18.96685970568783,16.755904666961186,3.382070874410962,-1.691035437205481,0.4732799695534681,20.543125227670824
1582603200000000000,8.302159317258806,18.961379381613757,17.34785477411179,3.8227342070725854,-1.9113671035362927,0.4601010906885541,21.64967036978908
1582606800000000000,7.980298541033709,18.9628728505291,17.991586145471647,3.73289142588459,-1.8637826909463875,0.4476265203889716,22.142661810980908
1582610400000000000,7.714549625134342,18.971592261904764,18.52307960792824,2.8373963694093085,-1.4186981847046543,0.43581580106543477,21.77768013928933
1582614000000000000,7.446850167733651,18.967936094576718,19.058483410386177,3.4983376800698576,-1.7491688400349288,0.4246095655330275,22.995775404834244
1582617600000000000,7.180178697374132,18.973157655423282,19.591813867962546,2.5498206728980652,-1.2749103364490326,0.4139650342830275,22.558690608594784
1582621200000000000,6.976135274897177,18.971441798941797,19.999899534195187,2.8326188344804066,-1.4163094172402033,0.4038429752733342,23.252549330292553
1582624800000000000,6.729671345059835,18.97303695436508,20.492833983406186,2.675521931320271,-1.3382628102781908,0.39420521408161796,23.502371193214703
1582628400000000000,6.496868820594101,18.971226025132278,20.958439460229624,2.7262437608506946,-1.3632462112991899,0.38501083939163777,24.080427063634158
1582632000000000000,6.366925828721787,18.993849206349207,21.218329333754443,0.5992499457465278,-0.2996249728732639,0.37624225111865495,22.093332123933013
1582635600000000000,6.341623278421069,18.99859085648148,21.26894143886667,0.1671552708540013,-0.08357763542700065,0.3678606741768973,21.58679673775163
1582639200000000000,6.333211747426835,18.999177414021162,21.28572283709491,0.08444407629588292,-0.04222203814794146,0.3598458264870618,21.43100844448836
1582642800000000000,6.3242736816406255,18.999108796296294,21.303605346679685,0.10410450122974535,-0.052052250614872675,0.35217376708984377,21.532967626178078
1582646400000000000,6.319467185691551,18.99978009259259,21.313187979239007,0.023151538990162035,-0.011575769495081017,0.3448159257192461,21.431017443137193
1582650000000000000,6.313260149274554,18.995870949074078,21.325713864281067,0.4200575086805556,-0.2100287543402778,0.3377654157366072,21.896107197110613
1582653600000000000,6.268845726699426,18.998402777777777,21.414495575112642,0.22859765108300265,-0.11429882554150132,0.3309968187443163,21.774657526571286
1582657200000000000,6.266149981463397,19.000104166666667,21.41981970893012,-0.027639883535879633,0.013819941767939816,0.32448974447906337,21.414899120835397
1582660800000000000,6.267952259205006,18.999877232142854,21.41620525218822,0.014445794322503307,-0.007222897161251653,0.31823693976831186,21.47947074446098
1582664400000000000,6.266097473467468,19.000014467592592,21.4199542010272,-0.00016308335400132325,0.0007294347046544305,0.31222007468894675,21.457664005340092
1582668000000000000,6.271589284422536,19.001076388888887,21.40902898556341,-0.0966532066385582,0.0483266033192791,0.3064294708090484,21.362766250529617
1582671600000000000,6.275614850079571,19.00010127314815,21.40090730535921,-0.0005055583974041012,0.0003522438977761252,0.3008443132027116,21.449549137498966
1582675200000000000,6.2737694101485,18.998931051587302,21.404646942300143,0.07653098131613756,-0.03826549065806878,0.295458910099413,21.581346769787014
1582678800000000000,6.24372461551081,18.99250289351852,21.464718403488245,0.7324880771536044,-0.3662440385768022,0.29026544641565394,22.506875862242683
1582682400000000000,6.165349973648314,18.986724950396823,21.621474247685185,1.2546630536437666,-0.6273315268218833,0.285250085901331,23.225691515402815
1582686000000000000,5.905713074699281,18.94730985449735,22.140736981750166,5.296326006531085,-2.6481630032655423,0.28040773260530344,27.6491198455972
1582689600000000000,5.399878388258514,18.937232142857145,23.152415874824317,6.279601081969246,-3.139800540984623,0.2757222719545717,29.473261361904246
1582693200000000000,4.8760164404167705,18.93810763888889,24.2001742908942,6.220310917607061,-3.1101554588035305,0.27119375238973625,30.44771856075872
1582696800000000000,4.4403858326099535,18.958038194444445,25.071413156014902,4.209819813884756,-2.104909906942378,0.266811434629733,29.438577783978175
1582700400000000000,4.006421331173528,18.938712384259258,25.93932707448485,6.194365163328786,-3.0974001606936183,0.20119088147683117,32.17976598507513
1582704000000000000,3.4795577728432954,18.935069444444444,26.99306676632513,6.530058684172453,-3.2650293420862266,0,33.5755039840779
1582707600000000000,3.0315961823640047,18.9706712962963,27.88898854412099,2.8953729861627817,-1.4476864930813909,0,30.91764654411841
1582711200000000000,2.9856571823200855,19.0067294973545,27.980875140800674,-0.6903754340277777,0.34518771701388884,0,27.474340461852055
1582714800000000000,3.339053653865666,19.07199904551467,27.27405082625572,-7.240013779442491,3.6210611333291998,0,20.38152586598876
1582718400000000000,3.8961499443256034,19.062660383597883,26.15984733944848,-6.317165798611112,3.158582899305556,0,19.984615848278874
1582722000000000000,4.200260689548714,19.01754505621693,25.55163623143756,-1.7256456809069114,0.8628228404534557,0,24.04929933578249
1582725600000000000,4.5574235833385,19.06214988425926,24.837312862658624,-6.241059964296048,3.120529982148024,0,18.64364914989976
1582729200000000000,5.010837022892382,19.03206473214286,23.930496120553798,-3.1279479334594082,1.5639739667297041,0,20.952821684337795
1582732800000000000,4.873078232215195,18.942850115740743,24.20602934499266,5.670012135985036,-2.83517334953187,0,30.005945303780692
1582736400000000000,4.3625437031095,18.941908895502646,25.22709749252077,5.857412671285963,-2.9283582091962224,0,31.19122276830925
1582740000000000000,3.861134194671792,18.937488425925924,26.229906669495602,6.252411050140542,-3.126205525070271,0,32.488167616425365
1582743600000000000,3.2506748518363513,18.914920221560845,27.45083771882234,8.489120079726769,-4.2445600398633845,0,36.252594946805765
1582747200000000000,2.7359166027250743,18.975974289021163,28.480389029689572,2.4376080225384427,-1.2188040112692213,0,31.056259554101047
1582750800000000000,2.709127541193886,19.00425719246032,28.533936727210953,-0.4321197025359622,0.2160598512679811,0,28.264084114195807
1582754400000000000,2.812874951236463,19.026710482804233,28.326476051290197,-2.5833441517340443,1.291318863157242,0,26.048741643996465
1582758000000000000,2.9603243679470483,19.002478091931216,28.031512648163652,-0.18731689453125003,0.09365844726562501,0,27.945958839699077
1582761600000000000,2.9558623411794187,19.00050016534392,28.04047000138217,-0.052838199353091926,0.026419099676545963,0,28.052293350784865
1582765200000000000,3.04919830160797,19.02585948773449,27.85377698479047,-2.722944148633846,1.364102398907697,0,25.509606280526384
1582768800000000000,3.4411440361870658,19.061744791666666,27.069896298363094,-6.171499262411127,3.0857496312055637,0,20.999522738986546
1582772400000000000,3.9675720731543485,19.06392361111111,26.017043387599724,-6.416030803054729,3.2080154015273643,0,19.70788386753627
1582776000000000000,4.543103309913918,19.077135003306875,24.86598621186756,-7.712895307591352,3.856447653795676,0,17.55922145298549
1582779600000000000,5.092261555989584,19.03625868055556,23.767659027261075,-3.6518540155319936,1.8259270077659968,0,20.240417438486897
1582783200000000000,5.086011907991279,18.966639798280426,23.780157588575253,3.3759820524346886,-1.6879910262173443,0,27.405293196420818
1582786800000000000,4.569175807407924,18.908890542328045,24.813836271094264,9.060428034060847,-4.530214017030423,0,34.00042125560619
1582790400000000000,3.8379415909701553,18.920788690476193,26.276289351528916,7.746414265304646,-3.87270754859561,0,34.188125967197315
1582794000000000000,3.0734111079463253,18.898718998015873,27.805349697536887,10.164539316974619,-5.082269658487309,0,38.27712710910373
1582797600000000000,2.2029695802425295,18.903259755291007,29.54628884789346,9.664231396226025,-4.833329538819651,0,39.345782882448226
1582801200000000000,1.6845299001219411,18.956306630291007,30.583114543289103,4.369386380311673,-2.1846931901558366,0,35.10586270286924
1582804800000000000,1.4046732051788815,18.991901041666665,31.14283356035828,0.8796218791335978,-0.4398109395667989,0,32.241344430106025
1582808400000000000,1.6664787720372436,19.057891038359788,30.61923020943132,-5.760239212601273,2.8784920021339695,0,24.974280393893125
1582812000000000000,2.1512538219633552,19.061686921296296,29.649687525834988,-6.162577472666584,3.081288736333292,0,23.534372090334614
1582815600000000000,2.7470592987222013,19.093285796957673,28.45805488223121,-9.243575323195683,4.621787661597842,0,19.513762597785426
1582819200000000000,3.697990415865783,19.124053819444445,26.556179284797143,-12.410555239076968,6.205277619538484,0,14.2921193586077
1582822800000000000,4.701696727288463,19.11537533068783,24.54880518514643,-11.522347909432872,5.761173954716436,0,13.360941785378431
1582826400000000000,5.671632281913959,19.10641906415344,22.608946736653646,-10.71284767433449,5.356356020326968,0,12.090672938432641
1582830000000000000,6.305746718310805,19.051696841931214,21.340654656950125,-5.18988037109375,2.594940185546875,0,16.46831089241795
1582833600000000000,6.441375921340215,18.96083126653439,21.069435626640523,3.80871824234251,-1.9040087341631533,0,25.07858142671131
1582837200000000000,5.620593959263393,18.84950355489418,22.710988578998226,15.049883322740989,-7.5249416613704945,0,37.81405162992932
1582840800000000000,4.030424444612372,18.77392898478836,25.891337667798236,22.69304192760003,-11.346520963800016,0,48.57916694923684
1582844400000000000,2.101982990244709,18.789298941798943,29.748195526284515,21.124099650710978,-10.562049825355489,0,50.78407406761533
1582848000000000000,0.6317011450712012,18.856991980820105,32.688771720765125,14.384648237278853,-7.1923241186394264,0,47.151139870295445
1582851600000000000,0.0028772424768518513,18.912980324074073,34.60920980140646,8.738422212146578,-4.36868891640315,0,43.465749957372275
1582855200000000000,0.09568799700055804,19.039511408730156,35.230719635171226,-3.857314659804894,1.928657329902447,0,31.478938390338232
1582858800000000000,1.234157498475736,19.213363508597883,32.970875305498716,-21.281346396794394,10.640673198397197,0,12.109179572857244
1582862400000000000,2.9645255937525836,19.253496197089948,28.96939416956019,-25.32148912217882,12.660206547489873,0,4.090792699743201
1582866000000000000,3.980115679382647,19.24576802248677,24.7639266531808,-24.530133121228094,12.265066560614047,0,0.8086501784551712
1582869600000000000,5.192574424578514,19.157572037337662,21.229983470012154,-15.717548218067016,7.858774109033508,0,6.06305785413543
1582873200000000000,5.9095637697896,19.021319857804233,19.795995470480946,-2.0741464120370368,1.0370732060185184,0,17.9744806166553
1582876800000000000,5.6233254036070806,18.93152240410053,20.368509733008327,6.753646931320271,-3.3768234656601357,0,27.246226375519285
1582880400000000000,5.0162068636455235,18.90498263888889,21.582707823092345,9.474876605644427,-4.737438302822214,0,31.10467696739883
1582884000000000000,3.883572458741526,18.822116402116404,23.84788252896102,17.798820374503965,-8.899410187251982,0,41.724674081953744
1582887600000000000,2.2754963546833666,18.80717013888889,27.064128421198124,19.337695247912535,-9.668971147486772,0,46.41997071119843
1582891200000000000,0.6967749443256035,18.82421875,30.22157230114811,17.515467729518022,-8.757733864759011,0,47.77321244981554
1582894800000000000,-0.0000026335539641203693,18.946416170634922,32.16810711573041,5.292769820601852,-2.646384910300926,0,37.6596894021009
1582898400000000000,0.019085977544229495,19.00771701388889,32.44396487765842,-0.9172255097242891,0.45861275486214453,0,31.65400003100199
1582902000000000000,0.28726501303375085,19.051542658730156,31.907589314778647,-5.251768727781911,2.6258843638909557,0,26.811246620460793
1582905600000000000,0.8705022805834574,19.10085358796296,30.741102078553865,-10.126889021939071,5.063444510969536,0,20.84701742666739
1582909200000000000,2.036576173166749,19.173141947751326,28.408909776475696,-17.26601769179894,8.63300884589947,0,11.464029696025543
1582912800000000000,1.537114995616664,19.23293645282187,10.495781875852556,-23.32076517202656,11.66059417455495,7.2973417320722405,1.6266667906746033
1582916400000000000,1.6369324570105819,19.153771908068787,-0.00059163249989666,-15.625609867156498,7.812804933578249,11.868037117448432,0
1582920000000000000,2.6803281479285506,19.0774681712963,-0.000279897861379795,-7.841130332341269,3.9205651661706344,9.031953820929955,0.000008544921875